Year,Month,Day,Hour,Minute,Value (Times are PST for temperature in C)
2019,03,27,00,00,1.30
2019,03,27,00,01,1.30
2019,03,27,00,02,1.30
2019,03,27,00,03,1.20
2019,03,27,00,04,1.20
2019,03,27,00,05,1.20
2019,03,27,00,06,1.20
2019,03,27,00,07,1.20
2019,03,27,00,08,1.20
2019,03,27,00,09,1.10
2019,03,27,00,10,1.10
2019,03,27,00,11,1.10
2019,03,27,00,12,1.10
2019,03,27,00,13,1.00
2019,03,27,00,14,1.00
2019,03,27,00,15,1.00
2019,03,27,00,16,1.00
2019,03,27,00,17,1.00
2019,03,27,00,18,0.90
2019,03,27,00,19,0.90
2019,03,27,00,20,0.90
2019,03,27,00,21,0.90
2019,03,27,00,22,0.90
2019,03,27,00,23,0.90
2019,03,27,00,24,0.90
2019,03,27,00,25,0.90
2019,03,27,00,26,0.90
2019,03,27,00,27,0.90
2019,03,27,00,28,0.90
2019,03,27,00,29,0.90
2019,03,27,00,30,0.90
2019,03,27,00,31,0.90
2019,03,27,00,32,0.90
2019,03,27,00,33,0.90
2019,03,27,00,34,0.80
2019,03,27,00,35,0.80
2019,03,27,00,36,0.80
2019,03,27,00,37,0.80
2019,03,27,00,38,0.80
2019,03,27,00,39,0.80
2019,03,27,00,40,0.80
2019,03,27,00,41,0.80
2019,03,27,00,42,0.80
2019,03,27,00,43,0.80
2019,03,27,00,44,0.70
2019,03,27,00,45,0.70
2019,03,27,00,46,0.70
2019,03,27,00,47,0.70
2019,03,27,00,48,0.70
2019,03,27,00,49,0.70
2019,03,27,00,50,0.70
2019,03,27,00,51,0.70
2019,03,27,00,52,0.60
2019,03,27,00,53,0.60
2019,03,27,00,54,0.60
2019,03,27,00,55,0.60
2019,03,27,00,56,0.60
2019,03,27,00,57,0.50
2019,03,27,00,58,0.50
2019,03,27,00,59,0.50
2019,03,27,01,00,0.50
2019,03,27,01,01,0.50
2019,03,27,01,02,0.40
2019,03,27,01,03,0.40
2019,03,27,01,04,0.40
2019,03,27,01,05,0.40
2019,03,27,01,06,0.40
2019,03,27,01,07,0.40
2019,03,27,01,08,0.40
2019,03,27,01,09,0.30
2019,03,27,01,10,0.30
2019,03,27,01,11,0.30
2019,03,27,01,12,0.30
2019,03,27,01,13,0.30
2019,03,27,01,14,0.30
2019,03,27,01,15,0.30
2019,03,27,01,16,0.30
2019,03,27,01,17,0.30
2019,03,27,01,18,0.30
2019,03,27,01,19,0.30
2019,03,27,01,20,0.30
2019,03,27,01,21,0.30
2019,03,27,01,22,0.30
2019,03,27,01,23,0.30
2019,03,27,01,24,0.30
2019,03,27,01,25,0.30
2019,03,27,01,26,0.30
2019,03,27,01,27,0.30
2019,03,27,01,28,0.30
2019,03,27,01,29,0.30
2019,03,27,01,30,0.20
2019,03,27,01,31,0.20
2019,03,27,01,32,0.20
2019,03,27,01,33,0.20
2019,03,27,01,34,0.20
2019,03,27,01,35,0.10
2019,03,27,01,36,0.10
2019,03,27,01,37,0.10
2019,03,27,01,38,0.10
2019,03,27,01,39,0.10
2019,03,27,01,40,0.10
2019,03,27,01,41,0.00
2019,03,27,01,42,0.00
2019,03,27,01,43,0.00
2019,03,27,01,44,0.00
2019,03,27,01,45,-0.10
2019,03,27,01,46,-0.10
2019,03,27,01,47,-0.10
2019,03,27,01,48,-0.10
2019,03,27,01,49,-0.10
2019,03,27,01,50,-0.20
2019,03,27,01,51,-0.20
2019,03,27,01,52,-0.20
2019,03,27,01,53,-0.20
2019,03,27,01,54,-0.20
2019,03,27,01,55,-0.20
2019,03,27,01,56,-0.20
2019,03,27,01,57,-0.20
2019,03,27,01,58,-0.20
2019,03,27,01,59,-0.20
2019,03,27,02,00,-0.20
2019,03,27,02,01,-0.20
2019,03,27,02,02,-0.20
2019,03,27,02,03,-0.20
2019,03,27,02,04,-0.20
2019,03,27,02,05,-0.20
2019,03,27,02,06,-0.20
2019,03,27,02,07,-0.30
2019,03,27,02,08,-0.30
2019,03,27,02,09,-0.30
2019,03,27,02,10,-0.30
2019,03,27,02,11,-0.30
2019,03,27,02,12,-0.30
2019,03,27,02,13,-0.30
2019,03,27,02,14,-0.30
2019,03,27,02,15,-0.30
2019,03,27,02,16,-0.30
2019,03,27,02,17,-0.40
2019,03,27,02,18,-0.40
2019,03,27,02,19,-0.40
2019,03,27,02,20,-0.40
2019,03,27,02,21,-0.40
2019,03,27,02,22,-0.40
2019,03,27,02,23,-0.40
2019,03,27,02,24,-0.40
2019,03,27,02,25,-0.40
2019,03,27,02,26,-0.50
2019,03,27,02,27,-0.50
2019,03,27,02,28,-0.50
2019,03,27,02,29,-0.50
2019,03,27,02,30,-0.50
2019,03,27,02,31,-0.50
2019,03,27,02,32,-0.60
2019,03,27,02,33,-0.60
2019,03,27,02,34,-0.60
2019,03,27,02,35,-0.60
2019,03,27,02,36,-0.60
2019,03,27,02,37,-0.60
2019,03,27,02,38,-0.60
2019,03,27,02,39,-0.60
2019,03,27,02,40,-0.70
2019,03,27,02,41,-0.70
2019,03,27,02,42,-0.70
2019,03,27,02,43,-0.70
2019,03,27,02,44,-0.70
2019,03,27,02,45,-0.70
2019,03,27,02,46,-0.70
2019,03,27,02,47,-0.70
2019,03,27,02,48,-0.70
2019,03,27,02,49,-0.70
2019,03,27,02,50,-0.70
2019,03,27,02,51,-0.70
2019,03,27,02,52,-0.70
2019,03,27,02,53,-0.70
2019,03,27,02,54,-0.80
2019,03,27,02,55,-0.80
2019,03,27,02,56,-0.80
2019,03,27,02,57,-0.80
2019,03,27,02,58,-0.80
2019,03,27,02,59,-0.80
2019,03,27,03,00,-0.80
2019,03,27,03,01,-0.80
2019,03,27,03,02,-0.80
2019,03,27,03,03,-0.80
2019,03,27,03,04,-0.80
2019,03,27,03,05,-0.80
2019,03,27,03,06,-0.80
2019,03,27,03,07,-0.90
2019,03,27,03,08,-0.90
2019,03,27,03,09,-0.90
2019,03,27,03,10,-0.90
2019,03,27,03,11,-0.90
2019,03,27,03,12,-0.90
2019,03,27,03,13,-0.90
2019,03,27,03,14,-0.90
2019,03,27,03,15,-0.90
2019,03,27,03,16,-0.90
2019,03,27,03,17,-0.90
2019,03,27,03,18,-0.90
2019,03,27,03,19,-0.90
2019,03,27,03,20,-0.90
2019,03,27,03,21,-0.90
2019,03,27,03,22,-0.90
2019,03,27,03,23,-0.90
2019,03,27,03,24,-0.90
2019,03,27,03,25,-0.90
2019,03,27,03,26,-0.90
2019,03,27,03,27,-0.90
2019,03,27,03,28,-0.90
2019,03,27,03,29,-0.90
2019,03,27,03,30,-0.90
2019,03,27,03,31,-0.90
2019,03,27,03,32,-0.90
2019,03,27,03,33,-0.90
2019,03,27,03,34,-0.90
2019,03,27,03,35,-0.90
2019,03,27,03,36,-0.90
2019,03,27,03,37,-0.90
2019,03,27,03,38,-0.90
2019,03,27,03,39,-0.90
2019,03,27,03,40,-1.00
2019,03,27,03,41,-0.90
2019,03,27,03,42,-0.90
2019,03,27,03,43,-0.90
2019,03,27,03,44,-0.90
2019,03,27,03,45,-0.90
2019,03,27,03,46,-0.90
2019,03,27,03,47,-0.90
2019,03,27,03,48,-0.90
2019,03,27,03,49,-0.90
2019,03,27,03,50,-0.90
2019,03,27,03,51,-0.90
2019,03,27,03,52,-0.90
2019,03,27,03,53,-0.90
2019,03,27,03,54,-0.90
2019,03,27,03,55,-0.90
2019,03,27,03,56,-0.90
2019,03,27,03,57,-0.90
2019,03,27,03,58,-0.90
2019,03,27,03,59,-0.90
2019,03,27,04,00,-0.90
2019,03,27,04,01,-0.90
2019,03,27,04,02,-0.90
2019,03,27,04,03,-0.90
2019,03,27,04,04,-0.90
2019,03,27,04,05,-0.90
2019,03,27,04,06,-0.90
2019,03,27,04,07,-0.90
2019,03,27,04,08,-0.90
2019,03,27,04,09,-0.90
2019,03,27,04,10,-0.90
2019,03,27,04,11,-0.90
2019,03,27,04,12,-0.90
2019,03,27,04,13,-0.90
2019,03,27,04,14,-0.90
2019,03,27,04,15,-0.90
2019,03,27,04,16,-0.90
2019,03,27,04,17,-0.90
2019,03,27,04,18,-0.90
2019,03,27,04,19,-0.90
2019,03,27,04,20,-0.90
2019,03,27,04,21,-0.90
2019,03,27,04,22,-0.90
2019,03,27,04,23,-0.90
2019,03,27,04,24,-1.00
2019,03,27,04,25,-1.00
2019,03,27,04,26,-1.00
2019,03,27,04,27,-1.00
2019,03,27,04,28,-1.00
2019,03,27,04,29,-1.00
2019,03,27,04,30,-1.00
2019,03,27,04,31,-1.00
2019,03,27,04,32,-1.00
2019,03,27,04,33,-1.00
2019,03,27,04,34,-1.00
2019,03,27,04,35,-1.00
2019,03,27,04,36,-1.00
2019,03,27,04,37,-1.00
2019,03,27,04,38,-1.00
2019,03,27,04,39,-1.00
2019,03,27,04,40,-1.10
2019,03,27,04,41,-1.10
2019,03,27,04,42,-1.10
2019,03,27,04,43,-1.10
2019,03,27,04,44,-1.10
2019,03,27,04,45,-1.10
2019,03,27,04,46,-1.10
2019,03,27,04,47,-1.10
2019,03,27,04,48,-1.10
2019,03,27,04,49,-1.20
2019,03,27,04,50,-1.20
2019,03,27,04,51,-1.20
2019,03,27,04,52,-1.20
2019,03,27,04,53,-1.20
2019,03,27,04,54,-1.20
2019,03,27,04,55,-1.20
2019,03,27,04,56,-1.20
2019,03,27,04,57,-1.20
2019,03,27,04,58,-1.20
2019,03,27,04,59,-1.20
2019,03,27,05,00,-1.20
2019,03,27,05,01,-1.20
2019,03,27,05,02,-1.20
2019,03,27,05,03,-1.20
2019,03,27,05,04,-1.30
2019,03,27,05,05,-1.20
2019,03,27,05,06,-1.30
2019,03,27,05,07,-1.30
2019,03,27,05,08,-1.30
2019,03,27,05,09,-1.20
2019,03,27,05,10,-1.30
2019,03,27,05,11,-1.30
2019,03,27,05,12,-1.30
2019,03,27,05,13,-1.30
2019,03,27,05,14,-1.30
2019,03,27,05,15,-1.30
2019,03,27,05,16,-1.30
2019,03,27,05,17,-1.30
2019,03,27,05,18,-1.30
2019,03,27,05,19,-1.30
2019,03,27,05,20,-1.30
2019,03,27,05,21,-1.30
2019,03,27,05,22,-1.30
2019,03,27,05,23,-1.30
2019,03,27,05,24,-1.30
2019,03,27,05,25,-1.20
2019,03,27,05,26,-1.20
2019,03,27,05,27,-1.20
2019,03,27,05,28,-1.30
2019,03,27,05,29,-1.20
2019,03,27,05,30,-1.20
2019,03,27,05,31,-1.20
2019,03,27,05,32,-1.20
2019,03,27,05,33,-1.20
2019,03,27,05,34,-1.20
2019,03,27,05,35,-1.20
2019,03,27,05,36,-1.20
2019,03,27,05,37,-1.20
2019,03,27,05,38,-1.20
2019,03,27,05,39,-1.20
2019,03,27,05,40,-1.20
2019,03,27,05,41,-1.20
2019,03,27,05,42,-1.20
2019,03,27,05,43,-1.10
2019,03,27,05,44,-1.10
2019,03,27,05,45,-1.10
2019,03,27,05,46,-1.10
2019,03,27,05,47,-1.10
2019,03,27,05,48,-1.10
2019,03,27,05,49,-1.10
2019,03,27,05,50,-1.10
2019,03,27,05,51,-1.10
2019,03,27,05,52,-1.10
2019,03,27,05,53,-1.10
2019,03,27,05,54,-1.10
2019,03,27,05,55,-1.10
2019,03,27,05,56,-1.10
2019,03,27,05,57,-1.00
2019,03,27,05,58,-1.00
2019,03,27,05,59,-1.00
2019,03,27,06,00,-1.00
2019,03,27,06,01,-1.00
2019,03,27,06,02,-1.00
2019,03,27,06,03,-1.00
2019,03,27,06,04,-0.90
2019,03,27,06,05,-0.90
2019,03,27,06,06,-0.90
2019,03,27,06,07,-0.90
2019,03,27,06,08,-0.90
2019,03,27,06,09,-0.90
2019,03,27,06,10,-0.90
2019,03,27,06,11,-0.90
2019,03,27,06,12,-0.90
2019,03,27,06,13,-0.90
2019,03,27,06,14,-0.90
2019,03,27,06,15,-0.90
2019,03,27,06,16,-0.90
2019,03,27,06,17,-0.90
2019,03,27,06,18,-0.90
2019,03,27,06,19,-0.90
2019,03,27,06,20,-0.90
2019,03,27,06,21,-0.90
2019,03,27,06,22,-0.90
2019,03,27,06,23,-0.90
2019,03,27,06,24,-0.90
2019,03,27,06,25,-0.90
2019,03,27,06,26,-0.90
2019,03,27,06,27,-0.90
2019,03,27,06,28,-0.90
2019,03,27,06,29,-0.90
2019,03,27,06,30,-0.90
2019,03,27,06,31,-0.90
2019,03,27,06,32,-0.90
2019,03,27,06,33,-0.90
2019,03,27,06,34,-0.90
2019,03,27,06,35,-0.90
2019,03,27,06,36,-0.90
2019,03,27,06,37,-0.90
2019,03,27,06,38,-1.00
2019,03,27,06,39,-0.90
2019,03,27,06,40,-0.90
2019,03,27,06,41,-0.90
2019,03,27,06,42,-1.00
2019,03,27,06,43,-1.00
2019,03,27,06,44,-1.00
2019,03,27,06,45,-1.00
2019,03,27,06,46,-1.00
2019,03,27,06,47,-1.10
2019,03,27,06,48,-1.00
2019,03,27,06,49,-1.10
2019,03,27,06,50,-1.10
2019,03,27,06,51,-1.10
2019,03,27,06,52,-1.10
2019,03,27,06,53,-1.10
2019,03,27,06,54,-1.10
2019,03,27,06,55,-1.10
2019,03,27,06,56,-1.10
2019,03,27,06,57,-1.10
2019,03,27,06,58,-1.10
2019,03,27,06,59,-1.10
2019,03,27,07,00,-1.10
2019,03,27,07,01,-1.10
2019,03,27,07,02,-1.10
2019,03,27,07,03,-1.10
2019,03,27,07,04,-1.10
2019,03,27,07,05,-1.10
2019,03,27,07,06,-1.10
2019,03,27,07,07,-1.10
2019,03,27,07,08,-1.10
2019,03,27,07,09,-1.10
2019,03,27,07,10,-1.10
2019,03,27,07,11,-1.10
2019,03,27,07,12,-1.10
2019,03,27,07,13,-1.10
2019,03,27,07,14,-1.10
2019,03,27,07,15,-1.10
2019,03,27,07,16,-1.10
2019,03,27,07,17,-1.10
2019,03,27,07,18,-1.10
2019,03,27,07,19,-1.10
2019,03,27,07,20,-1.10
2019,03,27,07,21,-1.10
2019,03,27,07,22,-1.10
2019,03,27,07,23,-1.10
2019,03,27,07,24,-1.10
2019,03,27,07,25,-1.10
2019,03,27,07,26,-1.10
2019,03,27,07,27,-1.10
2019,03,27,07,28,-1.10
2019,03,27,07,29,-1.10
2019,03,27,07,30,-1.10
2019,03,27,07,31,-1.10
2019,03,27,07,32,-1.10
2019,03,27,07,33,-1.10
2019,03,27,07,34,-1.10
2019,03,27,07,35,-1.10
2019,03,27,07,36,-1.10
2019,03,27,07,37,-1.10
2019,03,27,07,38,-1.10
2019,03,27,07,39,-1.10
2019,03,27,07,40,-1.10
2019,03,27,07,41,-1.10
2019,03,27,07,42,-1.10
2019,03,27,07,43,-1.10
2019,03,27,07,44,-1.10
2019,03,27,07,45,-1.10
2019,03,27,07,46,-1.10
2019,03,27,07,47,-1.10
2019,03,27,07,48,-1.10
2019,03,27,07,49,-1.10
2019,03,27,07,50,-1.10
2019,03,27,07,51,-1.10
2019,03,27,07,52,-1.10
2019,03,27,07,53,-1.10
2019,03,27,07,54,-1.10
2019,03,27,07,55,-1.00
2019,03,27,07,56,-1.00
2019,03,27,07,57,-1.00
2019,03,27,07,58,-1.00
2019,03,27,07,59,-0.90
2019,03,27,08,00,-0.90
2019,03,27,08,01,-0.90
2019,03,27,08,02,-0.90
2019,03,27,08,03,-0.90
2019,03,27,08,04,-0.90
2019,03,27,08,05,-0.90
2019,03,27,08,06,-0.90
2019,03,27,08,07,-0.90
2019,03,27,08,08,-0.80
2019,03,27,08,09,-0.80
2019,03,27,08,10,-0.80
2019,03,27,08,11,-0.80
2019,03,27,08,12,-0.80
2019,03,27,08,13,-0.80
2019,03,27,08,14,-0.70
2019,03,27,08,15,-0.70
2019,03,27,08,16,-0.70
2019,03,27,08,17,-0.60
2019,03,27,08,18,-0.60
2019,03,27,08,19,-0.50
2019,03,27,08,20,-0.50
2019,03,27,08,21,-0.40
2019,03,27,08,22,-0.40
2019,03,27,08,23,-0.40
2019,03,27,08,24,-0.30
2019,03,27,08,25,-0.30
2019,03,27,08,26,-0.30
2019,03,27,08,27,-0.30
2019,03,27,08,28,-0.20
2019,03,27,08,29,-0.20
2019,03,27,08,30,-0.20
2019,03,27,08,31,-0.20
2019,03,27,08,32,-0.10
2019,03,27,08,33,-0.10
2019,03,27,08,34,-0.10
2019,03,27,08,35,0.00
2019,03,27,08,36,0.00
2019,03,27,08,37,0.10
2019,03,27,08,38,0.20
2019,03,27,08,39,0.30
2019,03,27,08,40,0.30
2019,03,27,08,41,0.40
2019,03,27,08,42,0.50
2019,03,27,08,43,0.50
2019,03,27,08,44,0.60
2019,03,27,08,45,0.60
2019,03,27,08,46,0.60
2019,03,27,08,47,0.70
2019,03,27,08,48,0.70
2019,03,27,08,49,0.80
2019,03,27,08,50,0.80
2019,03,27,08,51,0.90
2019,03,27,08,52,1.00
2019,03,27,08,53,1.00
2019,03,27,08,54,1.10
2019,03,27,08,55,1.20
2019,03,27,08,56,1.30
2019,03,27,08,57,1.30
2019,03,27,08,58,1.30
2019,03,27,08,59,1.30
2019,03,27,09,00,1.30
2019,03,27,09,01,1.40
2019,03,27,09,02,1.50
2019,03,27,09,03,1.60
2019,03,27,09,04,1.70
2019,03,27,09,05,1.80
2019,03,27,09,06,1.90
2019,03,27,09,07,2.00
2019,03,27,09,08,2.10
2019,03,27,09,09,2.20
2019,03,27,09,10,2.20
2019,03,27,09,11,2.40
2019,03,27,09,12,2.50
2019,03,27,09,13,2.60
2019,03,27,09,14,2.70
2019,03,27,09,15,2.70
2019,03,27,09,16,2.80
2019,03,27,09,17,2.90
2019,03,27,09,18,2.90
2019,03,27,09,19,3.10
2019,03,27,09,20,3.20
2019,03,27,09,21,3.30
2019,03,27,09,22,3.40
2019,03,27,09,23,3.50
2019,03,27,09,24,3.60
2019,03,27,09,25,3.70
2019,03,27,09,26,3.80
2019,03,27,09,27,3.90
2019,03,27,09,28,4.00
2019,03,27,09,29,4.00
2019,03,27,09,30,4.10
2019,03,27,09,31,4.10
2019,03,27,09,32,4.20
2019,03,27,09,33,4.20
2019,03,27,09,34,4.20
2019,03,27,09,35,4.30
2019,03,27,09,36,4.30
2019,03,27,09,37,4.40
2019,03,27,09,38,4.40
2019,03,27,09,39,4.50
2019,03,27,09,40,4.60
2019,03,27,09,41,4.60
2019,03,27,09,42,4.70
2019,03,27,09,43,4.70
2019,03,27,09,44,4.70
2019,03,27,09,45,4.80
2019,03,27,09,46,5.00
2019,03,27,09,47,5.10
2019,03,27,09,48,5.20
2019,03,27,09,49,5.30
2019,03,27,09,50,5.50
2019,03,27,09,51,5.60
2019,03,27,09,52,5.70
2019,03,27,09,53,5.80
2019,03,27,09,54,5.90
2019,03,27,09,55,6.00
2019,03,27,09,56,6.10
2019,03,27,09,57,6.20
2019,03,27,09,58,6.30
2019,03,27,09,59,6.40
2019,03,27,10,00,6.50
2019,03,27,10,01,6.70
2019,03,27,10,02,6.80
2019,03,27,10,03,6.90
2019,03,27,10,04,7.00
2019,03,27,10,05,7.10
2019,03,27,10,06,7.10
2019,03,27,10,07,7.10
2019,03,27,10,08,7.10
2019,03,27,10,09,7.20
2019,03,27,10,10,7.20
2019,03,27,10,11,7.20
2019,03,27,10,12,7.20
2019,03,27,10,13,7.20
2019,03,27,10,14,7.30
2019,03,27,10,15,7.40
2019,03,27,10,16,7.40
2019,03,27,10,17,7.50
2019,03,27,10,18,7.60
2019,03,27,10,19,7.70
2019,03,27,10,20,7.70
2019,03,27,10,21,7.70
2019,03,27,10,22,7.80
2019,03,27,10,23,7.80
2019,03,27,10,24,7.90
2019,03,27,10,25,7.90
2019,03,27,10,26,7.90
2019,03,27,10,27,7.90
2019,03,27,10,28,7.90
2019,03,27,10,29,8.00
2019,03,27,10,30,8.10
2019,03,27,10,31,8.10
2019,03,27,10,32,8.10
2019,03,27,10,33,8.20
2019,03,27,10,34,8.20
2019,03,27,10,35,8.30
2019,03,27,10,36,8.30
2019,03,27,10,37,8.40
2019,03,27,10,38,8.50
2019,03,27,10,39,8.50
2019,03,27,10,40,8.60
2019,03,27,10,41,8.70
2019,03,27,10,42,8.80
2019,03,27,10,43,8.80
2019,03,27,10,44,8.90
2019,03,27,10,45,9.00
2019,03,27,10,46,9.10
2019,03,27,10,47,9.20
2019,03,27,10,48,9.30
2019,03,27,10,49,9.50
2019,03,27,10,50,9.60
2019,03,27,10,51,9.70
2019,03,27,10,52,9.70
2019,03,27,10,53,9.80
2019,03,27,10,54,9.90
2019,03,27,10,55,9.90
2019,03,27,10,56,9.90
2019,03,27,10,57,9.90
2019,03,27,10,58,9.90
2019,03,27,10,59,9.90
2019,03,27,11,00,9.90
2019,03,27,11,01,9.90
2019,03,27,11,02,9.90
2019,03,27,11,03,9.90
2019,03,27,11,04,10.00
2019,03,27,11,05,10.10
2019,03,27,11,06,10.20
2019,03,27,11,07,10.40
2019,03,27,11,08,10.50
2019,03,27,11,09,10.60
2019,03,27,11,10,10.70
2019,03,27,11,11,10.70
2019,03,27,11,12,10.70
2019,03,27,11,13,10.80
2019,03,27,11,14,10.90
2019,03,27,11,15,11.10
2019,03,27,11,16,11.10
2019,03,27,11,17,11.20
2019,03,27,11,18,11.20
2019,03,27,11,19,11.20
2019,03,27,11,20,11.30
2019,03,27,11,21,11.30
2019,03,27,11,22,11.40
2019,03,27,11,23,11.40
2019,03,27,11,24,11.50
2019,03,27,11,25,11.60
2019,03,27,11,26,11.70
2019,03,27,11,27,11.80
2019,03,27,11,28,11.80
2019,03,27,11,29,11.90
2019,03,27,11,30,11.80
2019,03,27,11,31,11.80
2019,03,27,11,32,11.90
2019,03,27,11,33,11.90
2019,03,27,11,34,12.00
2019,03,27,11,35,12.10
2019,03,27,11,36,12.10
2019,03,27,11,37,12.20
2019,03,27,11,38,12.10
2019,03,27,11,39,12.00
2019,03,27,11,40,12.00
2019,03,27,11,41,11.90
2019,03,27,11,42,11.90
2019,03,27,11,43,11.90
2019,03,27,11,44,11.90
2019,03,27,11,45,11.90
2019,03,27,11,46,11.90
2019,03,27,11,47,11.90
2019,03,27,11,48,11.90
2019,03,27,11,49,11.90
2019,03,27,11,50,11.90
2019,03,27,11,51,11.90
2019,03,27,11,52,11.90
2019,03,27,11,53,12.00
2019,03,27,11,54,12.10
2019,03,27,11,55,12.20
2019,03,27,11,56,12.20
2019,03,27,11,57,12.20
2019,03,27,11,58,12.20
2019,03,27,11,59,12.20
2019,03,27,12,00,12.20
2019,03,27,12,01,12.40
2019,03,27,12,02,12.40
2019,03,27,12,03,12.30
2019,03,27,12,04,12.30
2019,03,27,12,05,12.20
2019,03,27,12,06,12.20
2019,03,27,12,07,12.10
2019,03,27,12,08,12.10
2019,03,27,12,09,12.20
2019,03,27,12,10,12.30
2019,03,27,12,11,12.30
2019,03,27,12,12,12.30
2019,03,27,12,13,12.30
2019,03,27,12,14,12.30
2019,03,27,12,15,12.30
2019,03,27,12,16,12.30
2019,03,27,12,17,12.30
2019,03,27,12,18,12.30
2019,03,27,12,19,12.30
2019,03,27,12,20,12.30
2019,03,27,12,21,12.30
2019,03,27,12,22,12.40
2019,03,27,12,23,12.50
2019,03,27,12,24,12.60
2019,03,27,12,25,12.60
2019,03,27,12,26,12.70
2019,03,27,12,27,12.70
2019,03,27,12,28,12.80
2019,03,27,12,29,12.80
2019,03,27,12,30,12.80
2019,03,27,12,31,12.80
2019,03,27,12,32,12.80
2019,03,27,12,33,13.00
2019,03,27,12,34,13.10
2019,03,27,12,35,13.10
2019,03,27,12,36,13.10
2019,03,27,12,37,13.20
2019,03,27,12,38,13.20
2019,03,27,12,39,13.10
2019,03,27,12,40,13.10
2019,03,27,12,41,13.10
2019,03,27,12,42,13.10
2019,03,27,12,43,13.10
2019,03,27,12,44,13.20
2019,03,27,12,45,13.20
2019,03,27,12,46,13.30
2019,03,27,12,47,13.30
2019,03,27,12,48,13.40
2019,03,27,12,49,13.50
2019,03,27,12,50,13.50
2019,03,27,12,51,13.50
2019,03,27,12,52,13.60
2019,03,27,12,53,13.60
2019,03,27,12,54,13.70
2019,03,27,12,55,13.60
2019,03,27,12,56,13.60
2019,03,27,12,57,13.60
2019,03,27,12,58,13.60
2019,03,27,12,59,13.60
2019,03,27,13,00,13.60
2019,03,27,13,01,13.70
2019,03,27,13,02,13.70
2019,03,27,13,03,13.70
2019,03,27,13,04,13.80
2019,03,27,13,05,13.70
2019,03,27,13,06,13.80
2019,03,27,13,07,13.80
2019,03,27,13,08,13.80
2019,03,27,13,09,13.80
2019,03,27,13,10,13.80
2019,03,27,13,11,13.80
2019,03,27,13,12,13.80
2019,03,27,13,13,13.90
2019,03,27,13,14,13.90
2019,03,27,13,15,14.00
2019,03,27,13,16,14.00
2019,03,27,13,17,14.10
2019,03,27,13,18,14.10
2019,03,27,13,19,14.10
2019,03,27,13,20,14.10
2019,03,27,13,21,14.10
2019,03,27,13,22,14.00
2019,03,27,13,23,14.10
2019,03,27,13,24,14.20
2019,03,27,13,25,14.20
2019,03,27,13,26,14.30
2019,03,27,13,27,14.30
2019,03,27,13,28,14.30
2019,03,27,13,29,14.30
2019,03,27,13,30,14.30
2019,03,27,13,31,14.20
2019,03,27,13,32,14.20
2019,03,27,13,33,14.20
2019,03,27,13,34,14.20
2019,03,27,13,35,14.20
2019,03,27,13,36,14.20
2019,03,27,13,37,14.10
2019,03,27,13,38,14.10
2019,03,27,13,39,14.10
2019,03,27,13,40,14.10
2019,03,27,13,41,14.20
2019,03,27,13,42,14.20
2019,03,27,13,43,14.20
2019,03,27,13,44,14.30
2019,03,27,13,45,14.30
2019,03,27,13,46,14.20
2019,03,27,13,47,14.20
2019,03,27,13,48,14.20
2019,03,27,13,49,14.20
2019,03,27,13,50,14.20
2019,03,27,13,51,14.20
2019,03,27,13,52,14.20
2019,03,27,13,53,14.20
2019,03,27,13,54,14.10
2019,03,27,13,55,14.10
2019,03,27,13,56,14.10
2019,03,27,13,57,14.20
2019,03,27,13,58,14.20
2019,03,27,13,59,14.30
2019,03,27,14,00,14.30
2019,03,27,14,01,14.30
2019,03,27,14,02,14.30
2019,03,27,14,03,14.30
2019,03,27,14,04,14.30
2019,03,27,14,05,14.40
2019,03,27,14,06,14.50
2019,03,27,14,07,14.50
2019,03,27,14,08,14.50
2019,03,27,14,09,14.60
2019,03,27,14,10,14.60
2019,03,27,14,11,14.60
2019,03,27,14,12,14.70
2019,03,27,14,13,14.70
2019,03,27,14,14,14.70
2019,03,27,14,15,14.70
2019,03,27,14,16,14.60
2019,03,27,14,17,14.50
2019,03,27,14,18,14.50
2019,03,27,14,19,14.60
2019,03,27,14,20,14.60
2019,03,27,14,21,14.60
2019,03,27,14,22,14.60
2019,03,27,14,23,14.60
2019,03,27,14,24,14.60
2019,03,27,14,25,14.80
2019,03,27,14,26,14.90
2019,03,27,14,27,14.90
2019,03,27,14,28,14.90
2019,03,27,14,29,14.80
2019,03,27,14,30,14.80
2019,03,27,14,31,14.80
2019,03,27,14,32,14.70
2019,03,27,14,33,14.70
2019,03,27,14,34,14.80
2019,03,27,14,35,14.80
2019,03,27,14,36,14.80
2019,03,27,14,37,14.80
2019,03,27,14,38,14.80
2019,03,27,14,39,14.80
2019,03,27,14,40,14.80
2019,03,27,14,41,14.90
2019,03,27,14,42,15.00
2019,03,27,14,43,15.00
2019,03,27,14,44,15.00
2019,03,27,14,45,15.00
2019,03,27,14,46,14.90
2019,03,27,14,47,14.90
2019,03,27,14,48,15.00
2019,03,27,14,49,15.00
2019,03,27,14,50,15.00
2019,03,27,14,51,15.00
2019,03,27,14,52,15.00
2019,03,27,14,53,15.00
2019,03,27,14,54,15.00
2019,03,27,14,55,15.00
2019,03,27,14,56,15.00
2019,03,27,14,57,15.00
2019,03,27,14,58,15.00
2019,03,27,14,59,15.00
2019,03,27,15,00,15.00
2019,03,27,15,01,15.00
2019,03,27,15,02,15.00
2019,03,27,15,03,15.00
2019,03,27,15,04,15.00
2019,03,27,15,05,15.10
2019,03,27,15,06,15.20
2019,03,27,15,07,15.20
2019,03,27,15,08,15.10
2019,03,27,15,09,15.10
2019,03,27,15,10,15.20
2019,03,27,15,11,15.20
2019,03,27,15,12,15.10
2019,03,27,15,13,15.10
2019,03,27,15,14,15.10
2019,03,27,15,15,15.20
2019,03,27,15,16,15.10
2019,03,27,15,17,15.10
2019,03,27,15,18,15.10
2019,03,27,15,19,15.10
2019,03,27,15,20,15.10
2019,03,27,15,21,15.20
2019,03,27,15,22,15.30
2019,03,27,15,23,15.30
2019,03,27,15,24,15.30
2019,03,27,15,25,15.30
2019,03,27,15,26,15.30
2019,03,27,15,27,15.30
2019,03,27,15,28,15.30
2019,03,27,15,29,15.30
2019,03,27,15,30,15.40
2019,03,27,15,31,15.40
2019,03,27,15,32,15.40
2019,03,27,15,33,15.40
2019,03,27,15,34,15.40
2019,03,27,15,35,15.40
2019,03,27,15,36,15.40
2019,03,27,15,37,15.30
2019,03,27,15,38,15.30
2019,03,27,15,39,15.30
2019,03,27,15,40,15.30
2019,03,27,15,41,15.40
2019,03,27,15,42,15.40
2019,03,27,15,43,15.40
2019,03,27,15,44,15.40
2019,03,27,15,45,15.40
2019,03,27,15,46,15.40
2019,03,27,15,47,15.40
2019,03,27,15,48,15.40
2019,03,27,15,49,15.30
2019,03,27,15,50,15.30
2019,03,27,15,51,15.30
2019,03,27,15,52,15.40
2019,03,27,15,53,15.40
2019,03,27,15,54,15.30
2019,03,27,15,55,15.30
2019,03,27,15,56,15.30
2019,03,27,15,57,15.30
2019,03,27,15,58,15.30
2019,03,27,15,59,15.30
2019,03,27,16,00,15.40
2019,03,27,16,01,15.50
2019,03,27,16,02,15.50
2019,03,27,16,03,15.60
2019,03,27,16,04,15.60
2019,03,27,16,05,15.60
2019,03,27,16,06,15.60
2019,03,27,16,07,15.60
2019,03,27,16,08,15.60
2019,03,27,16,09,15.60
2019,03,27,16,10,15.50
2019,03,27,16,11,15.50
2019,03,27,16,12,15.50
2019,03,27,16,13,15.60
2019,03,27,16,14,15.60
2019,03,27,16,15,15.50
2019,03,27,16,16,15.40
2019,03,27,16,17,15.40
2019,03,27,16,18,15.50
2019,03,27,16,19,15.50
2019,03,27,16,20,15.50
2019,03,27,16,21,15.60
2019,03,27,16,22,15.60
2019,03,27,16,23,15.60
2019,03,27,16,24,15.60
2019,03,27,16,25,15.60
2019,03,27,16,26,15.50
2019,03,27,16,27,15.50
2019,03,27,16,28,15.50
2019,03,27,16,29,15.50
2019,03,27,16,30,15.40
2019,03,27,16,31,15.50
2019,03,27,16,32,15.50
2019,03,27,16,33,15.60
2019,03,27,16,34,15.60
2019,03,27,16,35,15.60
2019,03,27,16,36,15.50
2019,03,27,16,37,15.50
2019,03,27,16,38,15.40
2019,03,27,16,39,15.40
2019,03,27,16,40,15.40
2019,03,27,16,41,15.40
2019,03,27,16,42,15.40
2019,03,27,16,43,15.30
2019,03,27,16,44,15.30
2019,03,27,16,45,15.40
2019,03,27,16,46,15.40
2019,03,27,16,47,15.40
2019,03,27,16,48,15.30
2019,03,27,16,49,15.30
2019,03,27,16,50,15.30
2019,03,27,16,51,15.30
2019,03,27,16,52,15.30
2019,03,27,16,53,15.30
2019,03,27,16,54,15.30
2019,03,27,16,55,15.30
2019,03,27,16,56,15.30
2019,03,27,16,57,15.30
2019,03,27,16,58,15.30
2019,03,27,16,59,15.30
2019,03,27,17,00,15.30
2019,03,27,17,01,15.30
2019,03,27,17,02,15.30
2019,03,27,17,03,15.30
2019,03,27,17,04,15.20
2019,03,27,17,05,15.20
2019,03,27,17,06,15.20
2019,03,27,17,07,15.20
2019,03,27,17,08,15.20
2019,03,27,17,09,15.20
2019,03,27,17,10,15.20
2019,03,27,17,11,15.20
2019,03,27,17,12,15.20
2019,03,27,17,13,15.20
2019,03,27,17,14,15.20
2019,03,27,17,15,15.20
2019,03,27,17,16,15.20
2019,03,27,17,17,15.20
2019,03,27,17,18,15.20
2019,03,27,17,19,15.20
2019,03,27,17,20,15.20
2019,03,27,17,21,15.20
2019,03,27,17,22,15.20
2019,03,27,17,23,15.20
2019,03,27,17,24,15.20
2019,03,27,17,25,15.20
2019,03,27,17,26,15.20
2019,03,27,17,27,15.30
2019,03,27,17,28,15.30
2019,03,27,17,29,15.30
2019,03,27,17,30,15.20